Погода в Веденке

Россия / Приморский край     45°52′36″N   133°54′26″E
темп.,
°C
ветер,
м/с
пор.,
м/с
влажн.,
%
обл.,
%
осадки,
мм/ч
давл.,
гПа
погр.,
м
13 мая, чт
чт1301:00+8ююв368122 0.0 1011136
04:00+7ю278390 0.0 1010170
07:00+9ююз412766 0.0 1010697
10:00+14юз7116417 0.0 10101000
13:00+18зюз710480 0.0 10091584
16:00+20зюз7113730 0.0 10072887
19:00+18зюз38456 0.0 1008321
22:00+12юз367467 0.0 1010112
14 мая, пт
пт1401:00+10юз3888100 0.0 1011204
04:00+9юз25882 0.0 1011112
07:00+10юз278053 0.0 1013241
10:00+17юз47519 0.0 1012623
13:00+22зюз563327 0.0 10121346
16:00+23зюз4425100 0.0 10102443
19:00+19ююз1243100 0.0 100911
22:00+16ююв2245100 0.0 100920
15 мая, сб
сб1501:00+15ю2445100 0.0 100888
04:00+12ююв41083100 1.7 1006449
07:00+13ююз51592100 6.5 10041033
10:00+14юз71590100 8.9 1004859
13:00+14зюз61293100 0.5 1005589
16:00+13зюз4794100 2.1 1006422
19:00+11юз41092100 0.3 1007475
22:00+11юз41193100 0.4 1008408
16 мая, вс
вс1601:00+9юз41095100 0.1 1008344
04:00+9юз4109541 0.1 1008304
07:00+9юз37930 0.0 1008267
10:00+14юз466712 0.0 1008568
13:00+19зюз574559 0.0 10071938
16:00+21зюз583590 0.0 10052751
19:00+18ююз510563 0.0 1004442
22:00+12юз311703 0.0 1005218
17 мая, пн
пн1701:00+10юз277723 0.0 1005153
04:00+9ю228057 0.0 100538
07:00+11ююз14775 0.0 1005143
10:00+17ююз46540 0.0 1004594
13:00+21зюз67410 0.0 10031520
16:00+22зюз673280 0.0 10032393
19:00+19юз245295 0.0 1004115
22:00+14ююз346413 0.0 100672